Regional Weather Roundup
Issued by NWS

Home | Current Version | Previous Version | Text Only | Print | Product List | Glossary On
Versions: 1 2 3 4 5 6 7 8 9 10 11 12 13 14 15 16 17 18 19 20 21 22 23 24 25 26 27 28 29 30 31 32 33 34 35 36 37 38 39 40 41 42 43 44 45 46 47 48 49 50
000
ASUS45 KBOI 211810
RWRID
WEATHER ROUNDUP FOR IDAHO
NATIONAL WEATHER SERVICE BOISE ID
1200 PM MDT SUN SEP 21 2014

NOTE: "FAIR" INDICATES FEW OR NO CLOUDS BELOW 12000 FEET
WITH NO SIGNIFICANT WEATHER AND/OR OBSTRUCTIONS TO VISIBILITY

IDZ012-014-211900-
SOUTHWEST IDAHO


CITY           SKY/WX    TMP DP  RH WIND       PRES   REMARKS
BOISE          MOSUNNY   79  42  26 SE6G17    30.03F
CALDWELL       MOSUNNY   73  48  40 CALM      30.05S
MOUNTAIN HOME  PTSUNNY   70  45  40 E17       30.05F
$$

IDZ016-017-211900-
SOUTHCENTRAL IDAHO


CITY           SKY/WX    TMP DP  RH WIND       PRES   REMARKS
BURLEY         CLOUDY    64  49  57 CALM      30.12F
JEROME         CLOUDY    64  50  60 S7        30.13F
TWIN FALLS     LGT RAIN  64  54  69 S9        30.13S
$$

IDZ019>023-211900-
SOUTHEAST IDAHO


CITY           SKY/WX    TMP DP  RH WIND       PRES   REMARKS
IDAHO FALLS    MOSUNNY   76  43  30 S6        30.19S
POCATELLO      SUNNY     72  46  39 NE5       30.17S
REXBURG        PTSUNNY   72  44  36 SE3       30.20F
$$

IDZ006-010-011-018-031-032-211900-
CENTRAL IDAHO MOUNTAINS


CITY           SKY/WX    TMP DP  RH WIND       PRES   REMARKS
MCCALL         PTSUNNY   64  44  48 CALM      30.15S
HAILEY         PTSUNNY   70  46  43 E10       30.20R
STANLEY          N/A     64  38  38 N6        30.26F
SALMON         MOSUNNY   64  41  42 CALM      30.16F
CHALLIS        MOSUNNY   64  40  41 CALM      30.20F
$$

IDZ002-004-006-007-026-211900-
NORTHERN IDAHO


CITY           SKY/WX    TMP DP  RH WIND       PRES   REMARKS
LEWISTON       SUNNY     72  45  37 CALM      29.98S
LOWELL           N/A     71  46  40 CALM      30.00F
COEUR D`ALENE  SUNNY     73  48  40 NE14      30.02F
MULLAN PASS    SUNNY     62  39  42 VRB7      30.22R
$$



USA.gov is the U.S. government's official web portal to all federal, state and local government web resources and services.